Location: Ida Center
(41.8662°N, 83.5713°W)
Time: 04:40:51
(UTC+00:00)

Lacrosse 4 Rocket - Pass Details

Date: 17 November 2019
Orbit: 543 x 616 km, 68.0° (Epoch: 09 December)

Event Time Altitude Azimuth Distance (km) Brightness Sun altitude
Rises 23:15:17 0° 211° (SSW) 2,716 5.6 -11.9°
Reaches altitude 10° 23:17:29 10° 213° (SSW) 1,818 4.7 -12.3°
Maximum altitude 23:21:32 75° 299° (WNW) 569 1.5 -13.0°
Drops below altitude 10° 23:25:35 10° 25° (NNE) 1,816 3.6 -13.7°
Enters shadow 23:25:37 10° 25° (NNE) 1,826 3.6 -13.8°
